Tracking 29892 objects as of 21-Nov-2024
HD Live streaming from Space Station
objects crossing your sky now

STARLINK-30276

Track STARLINK-30276 now!
10-day predictions
STARLINK-30276 is classified as:


NORAD ID: 57652
Int'l Code: 2023-122W
Perigee: 564.8 km
Apogee: 567.5 km
Inclination: 43.0 °
Period: 95.8 minutes
Semi major axis: 6937 km
RCS: Unknown
Launch date: August 17, 2023
Source: United States (US)
Launch site: AIR FORCE EASTERN TEST RANGE (AFETR)
Your satellite tracking list
Your tracking list is empty




NASA's NSSDC Master Catalog

Two Line Element Set (TLE):
1 57652U 23122W   24325.88831913  .00000651  00000-0  63231-4 0  9993
2 57652  43.0019 148.8091 0001940 257.4055 102.6570 15.02551363 70893
Source of the keplerian elements: AFSPC